Powrót do katalogu

RROCI-2

AktywnyNaukaSSO
NORAD 59106·PAYLOAD·🇺🇸 United States

Wystrzelony Mar 4, 2024 z Vandenberg Space Force Base

Loading…

Następne Przeloty (najbliższe 24 godziny)

TLE

ŚwieżeSource: Space-Track

Epoka: Sep 14, 2026, 04:03 UTC

1 59106U 24043J   26257.16883921  .00001774  00000-0  14641-3 0  9992
2 59106  97.8529  30.7185 0016218  91.2779 269.0303 15.00238484138101

Śledź RROCI-2 w czasie rzeczywistym z AllMySat

Download on the App Store